| time (UTC) | temp F | wind direction | speed MPH | gust MPH | rain 1hr in | rain 24hr in | rain mn in | humidity % | barometer mb |
| 20260510130332 | 56 | 112 | 3.0 | 7.0 | 0.00 | 0.00 | 0.00 | 61 | 1029.6 |
| 20260510125434 | 56 | 111 | 4.0 | 7.0 | 0.00 | 0.00 | 0.00 | 61 | 1029.6 |
| 20260510123632 | 56 | 115 | 4.0 | 7.0 | 0.00 | 0.00 | 0.00 | 60 | 1029.6 |
| 20260510122732 | 56 | 120 | 3.0 | 7.0 | 0.00 | 0.00 | 0.00 | 59 | 1029.8 |
| 20260510121832 | 56 | 116 | 3.0 | 6.0 | 0.00 | 0.00 | 0.00 | 59 | 1029.8 |
| 20260510120032 | 56 | 116 | 5.0 | 9.0 | 0.00 | 0.00 | 0.00 | 58 | 1029.6 |
| 20260510115132 | 56 | 113 | 5.0 | 8.0 | 0.00 | 0.00 | 0.00 | 58 | 1029.5 |
| 20260510114232 | 56 | 113 | 4.0 | 9.0 | 0.00 | 0.00 | 0.00 | 58 | 1029.4 |
| 20260510113332 | 56 | 120 | 2.0 | 4.0 | 0.00 | 0.00 | 0.00 | 57 | 1029.4 |
| 20260510112432 | 56 | 113 | 3.0 | 7.0 | 0.00 | 0.00 | 0.00 | 57 | 1029.5 |
| 20260510111531 | 56 | 115 | 3.0 | 6.0 | 0.00 | 0.00 | 0.00 | 57 | 1029.5 |
| 20260510110632 | 56 | 114 | 3.0 | 7.0 | 0.00 | 0.00 | 0.00 | 56 | 1029.4 |
| 20260510105732 | 56 | 113 | 3.0 | 6.0 | 0.00 | 0.00 | 0.00 | 56 | 1029.3 |
| 20260510104832 | 56 | 121 | 2.0 | 4.0 | 0.00 | 0.00 | 0.00 | 56 | 1029.4 |
| 20260510103932 | 57 | 162 | 1.0 | 3.0 | 0.00 | 0.00 | 0.00 | 56 | 1029.5 |
| 20260510102132 | 57 | 168 | 1.0 | 2.0 | 0.00 | 0.00 | 0.00 | 56 | 1029.4 |
| 20260510101231 | 57 | 168 | 2.0 | 4.0 | 0.00 | 0.00 | 0.00 | 56 | 1029.4 |
| 20260510100331 | 58 | 168 | 1.0 | 4.0 | 0.00 | 0.00 | 0.00 | 56 | 1029.5 |
| 20260510095432 | 58 | 168 | 0.0 | 2.0 | 0.00 | 0.00 | 0.00 | 56 | 1029.5 |
| 20260510094531 | 58 | 168 | 1.0 | 2.0 | 0.00 | 0.00 | 0.00 | 56 | 1029.4 |
| 20260510093631 | 58 | 168 | 1.0 | 2.0 | 0.00 | 0.00 | 0.00 | 56 | 1029.3 |
| 20260510091832 | 58 | 167 | 0.0 | 1.0 | 0.00 | 0.00 | 0.00 | 56 | 1029.2 |
| 20260510090931 | 59 | 167 | 0.0 | 2.0 | 0.00 | 0.00 | 0.00 | 56 | 1029.0 |
| 20260510090032 | 59 | 168 | 1.0 | 4.0 | 0.00 | 0.00 | 0.00 | 56 | 1028.9 |
| 20260510085131 | 59 | 185 | 2.0 | 4.0 | 0.00 | 0.00 | 0.00 | 56 | 1028.8 |
| 20260510084231 | 59 | 186 | 2.0 | 5.0 | 0.00 | 0.00 | 0.00 | 56 | 1028.9 |
| 20260510083331 | 59 | 190 | 2.0 | 5.0 | 0.00 | 0.00 | 0.00 | 56 | 1028.8 |
| 20260510082431 | 59 | 203 | 2.0 | 5.0 | 0.00 | 0.00 | 0.00 | 56 | 1028.7 |
| 20260510081531 | 59 | 203 | 3.0 | 6.0 | 0.00 | 0.00 | 0.00 | 56 | 1028.6 |
| 20260510080631 | 60 | 207 | 3.0 | 6.0 | 0.00 | 0.00 | 0.00 | 55 | 1028.6 |
| 20260510075731 | 60 | 214 | 2.0 | 6.0 | 0.00 | 0.00 | 0.00 | 55 | 1028.5 |
| 20260510074831 | 60 | 238 | 1.0 | 4.0 | 0.00 | 0.00 | 0.00 | 54 | 1028.3 |
| 20260510073031 | 60 | 250 | 3.0 | 4.0 | 0.00 | 0.00 | 0.00 | 53 | 1028.3 |
| 20260510072131 | 61 | 253 | 2.0 | 7.0 | 0.00 | 0.00 | 0.00 | 53 | 1028.2 |
| 20260510071231 | 61 | 261 | 3.0 | 6.0 | 0.00 | 0.00 | 0.00 | 53 | 1028.2 |
| 20260510070331 | 61 | 242 | 3.0 | 7.0 | 0.00 | 0.00 | 0.00 | 53 | 1028.2 |
| 20260510065431 | 61 | 241 | 4.0 | 8.0 | 0.00 | 0.00 | 0.00 | 52 | 1028.2 |
| 20260510064531 | 62 | 222 | 5.0 | 8.0 | 0.00 | 0.00 | 0.00 | 51 | 1028.2 |
| 20260510063631 | 63 | 238 | 5.0 | 10.0 | 0.00 | 0.00 | 0.00 | 51 | 1028.0 |
| 20260510062731 | 62 | 245 | 3.0 | 7.0 | 0.00 | 0.00 | 0.00 | 52 | 1028.0 |
| 20260510061831 | 63 | 246 | 2.0 | 5.0 | 0.00 | 0.00 | 0.00 | 52 | 1027.9 |
| 20260510060031 | 64 | 270 | 3.0 | 8.0 | 0.00 | 0.00 | 0.00 | 49 | 1027.9 |
| 20260510054231 | 65 | 265 | 4.0 | 8.0 | 0.00 | 0.00 | 0.00 | 49 | 1027.9 |
| 20260510053331 | 63 | 255 | 3.0 | 7.0 | 0.00 | 0.00 | 0.00 | 51 | 1027.9 |
| 20260510052431 | 63 | 243 | 3.0 | 7.0 | 0.00 | 0.00 | 0.00 | 51 | 1027.9 |
| 20260510050631 | 64 | 254 | 2.0 | 7.0 | 0.00 | 0.00 | 0.00 | 49 | 1027.9 |
| 20260510045731 | 64 | 249 | 3.0 | 7.0 | 0.00 | 0.00 | 0.00 | 51 | 1027.9 |
| 20260510043931 | 64 | 269 | 1.0 | 3.0 | 0.00 | 0.00 | 0.00 | 50 | 1028.0 |
| 20260510043031 | 64 | 293 | 0.0 | 3.0 | 0.00 | 0.00 | 0.00 | 51 | 1028.0 |
| 20260510042131 | 64 | 320 | 1.0 | 4.0 | 0.00 | 0.00 | 0.00 | 50 | 1028.0 |
| 20260510041231 | 64 | 307 | 3.0 | 6.0 | 0.00 | 0.00 | 0.00 | 47 | 1028.0 |
| 20260510040331 | 64 | 315 | 2.0 | 6.0 | 0.00 | 0.00 | 0.00 | 48 | 1028.0 |
| 20260510032731 | 67 | 352 | 1.0 | 8.0 | 0.00 | 0.00 | 0.00 | 44 | 1028.3 |
| 20260510031837 | 65 | 126 | 0.0 | 2.0 | 0.00 | 0.00 | 0.00 | 48 | 1028.4 |
| 20260510030030 | 63 | 25 | 1.0 | 4.0 | 0.00 | 0.00 | 0.00 | 49 | 1028.6 |
| 20260510024230 | 63 | 230 | 1.0 | 2.0 | 0.00 | 0.00 | 0.00 | 53 | 1028.9 |
| 20260510021530 | 63 | 15 | 1.0 | 4.0 | 0.00 | 0.00 | 0.00 | 49 | 1029.5 |
| 20260510020630 | 63 | 163 | 1.0 | 4.0 | 0.00 | 0.00 | 0.00 | 53 | 1029.5 |
| 20260510015731 | 63 | 36 | 1.0 | 3.0 | 0.00 | 0.00 | 0.00 | 53 | 1029.7 |
| 20260510014830 | 61 | 37 | 2.0 | 5.0 | 0.00 | 0.00 | 0.00 | 51 | 1029.7 |
| 20260510012131 | 61 | 78 | 1.0 | 4.0 | 0.00 | 0.00 | 0.00 | 52 | 1029.8 |
| 20260510011230 | 60 | 29 | 1.0 | 3.0 | 0.00 | 0.00 | 0.00 | 52 | 1029.8 |
| 20260510010330 | 60 | 60 | 1.0 | 4.0 | 0.00 | 0.00 | 0.00 | 52 | 1029.9 |
| 20260510005430 | 60 | 58 | 2.0 | 6.0 | 0.00 | 0.00 | 0.00 | 53 | 1029.9 |
| 20260510001830 | 60 | 111 | 4.0 | 9.0 | 0.00 | 0.00 | 0.00 | 56 | 1029.8 |
| 20260510000031 | 59 | 100 | 3.0 | 7.0 | 0.00 | 0.00 | 0.00 | 57 | 1029.9 |
| 20260509235130 | 58 | 93 | 2.0 | 5.0 | 0.00 | 0.00 | 0.00 | 59 | 1029.9 |
| 20260509234230 | 57 | 103 | 2.0 | 4.0 | 0.00 | 0.00 | 0.00 | 62 | 1030.0 |
| 20260509233330 | 56 | 90 | 1.0 | 4.0 | 0.00 | 0.00 | 0.00 | 65 | 1029.9 |
| 20260509232430 | 56 | 17 | 0.0 | 1.0 | 0.00 | 0.00 | 0.00 | 66 | 1029.9 |
| 20260509231530 | 54 | 0 | 0.0 | 0.0 | 0.00 | 0.00 | 0.00 | 66 | 1029.9 |
| 20260509230630 | 53 | 17 | 1.0 | 2.0 | 0.00 | 0.00 | 0.00 | 65 | 1029.8 |
| 20260509225730 | 53 | 17 | 1.0 | 2.0 | 0.00 | 0.00 | 0.00 | 65 | 1029.7 |
| 20260509224830 | 52 | 13 | 1.0 | 2.0 | 0.00 | 0.00 | 0.00 | 65 | 1029.8 |
| 20260509223930 | 52 | 350 | 1.0 | 2.0 | 0.00 | 0.00 | 0.00 | 65 | 1029.7 |
| 20260509222130 | 52 | 319 | 0.0 | 2.0 | 0.00 | 0.00 | 0.00 | 65 | 1029.4 |
| 20260509221230 | 52 | 355 | 0.0 | 1.0 | 0.00 | 0.00 | 0.00 | 65 | 1029.4 |
| 20260509220330 | 51 | 0 | 0.0 | 0.0 | 0.00 | 0.00 | 0.00 | 65 | 1029.2 |
| 20260509214530 | 51 | 30 | 1.0 | 2.0 | 0.00 | 0.00 | 0.00 | 65 | 1028.9 |
| 20260509212730 | 51 | 30 | 1.0 | 3.0 | 0.00 | 0.00 | 0.00 | 65 | 1028.9 |
| 20260509211830 | 51 | 30 | 1.0 | 2.0 | 0.00 | 0.00 | 0.00 | 65 | 1028.7 |
| 20260509210930 | 50 | 31 | 1.0 | 2.0 | 0.00 | 0.00 | 0.00 | 65 | 1028.7 |
| 20260509210029 | 50 | 77 | 1.0 | 3.0 | 0.00 | 0.00 | 0.00 | 65 | 1028.7 |
| 20260509205130 | 50 | 130 | 0.0 | 3.0 | 0.00 | 0.00 | 0.00 | 65 | 1028.6 |
| 20260509204230 | 50 | 129 | 0.0 | 2.0 | 0.00 | 0.00 | 0.00 | 65 | 1028.5 |
| 20260509203330 | 49 | 129 | 0.0 | 2.0 | 0.00 | 0.00 | 0.00 | 65 | 1028.4 |
| 20260509202429 | 49 | 0 | 0.0 | 0.0 | 0.00 | 0.00 | 0.00 | 65 | 1028.4 |
| 20260509201529 | 49 | 129 | 1.0 | 2.0 | 0.00 | 0.00 | 0.00 | 65 | 1028.2 |
| 20260509200629 | 49 | 130 | 1.0 | 2.0 | 0.00 | 0.00 | 0.00 | 65 | 1028.1 |
| 20260509195730 | 49 | 130 | 1.0 | 2.0 | 0.00 | 0.00 | 0.00 | 65 | 1028.1 |
| 20260509193930 | 49 | 129 | 1.0 | 2.0 | 0.00 | 0.00 | 0.00 | 64 | 1028.0 |
| 20260509193030 | 50 | 129 | 1.0 | 2.0 | 0.00 | 0.00 | 0.00 | 64 | 1027.9 |
| 20260509191230 | 50 | 129 | 0.0 | 2.0 | 0.00 | 0.00 | 0.00 | 64 | 1027.9 |
| 20260509190330 | 50 | 129 | 1.0 | 2.0 | 0.00 | 0.00 | 0.00 | 64 | 1027.8 |
| 20260509184529 | 50 | 129 | 1.0 | 2.0 | 0.00 | 0.00 | 0.00 | 64 | 1027.6 |
| 20260509181829 | 51 | 129 | 1.0 | 2.0 | 0.00 | 0.00 | 0.00 | 64 | 1027.6 |
| 20260509180929 | 51 | 129 | 0.0 | 2.0 | 0.00 | 0.00 | 0.00 | 64 | 1027.6 |
| 20260509175129 | 51 | 133 | 1.0 | 5.0 | 0.00 | 0.00 | 0.00 | 64 | 1027.5 |
| 20260509174229 | 51 | 129 | 1.0 | 2.0 | 0.00 | 0.00 | 0.00 | 64 | 1027.6 |
| 20260509173329 | 52 | 121 | 1.0 | 3.0 | 0.00 | 0.00 | 0.00 | 65 | 1027.6 |
| 20260509172430 | 52 | 127 | 1.0 | 3.0 | 0.00 | 0.00 | 0.00 | 64 | 1027.6 |
| 20260509171529 | 52 | 124 | 1.0 | 3.0 | 0.00 | 0.00 | 0.00 | 64 | 1027.6 |
| 20260509170630 | 52 | 131 | 2.0 | 4.0 | 0.00 | 0.00 | 0.00 | 64 | 1027.7 |
| 20260509164830 | 51 | 106 | 2.0 | 4.0 | 0.00 | 0.00 | 0.00 | 65 | 1027.7 |
| 20260509163029 | 51 | 111 | 2.0 | 6.0 | 0.00 | 0.00 | 0.00 | 64 | 1027.9 |
| 20260509162130 | 51 | 150 | 1.0 | 3.0 | 0.00 | 0.00 | 0.00 | 64 | 1027.9 |
| 20260509160330 | 51 | 150 | 0.0 | 2.0 | 0.00 | 0.00 | 0.00 | 64 | 1028.0 |
| 20260509155429 | 51 | 149 | 1.0 | 2.0 | 0.00 | 0.00 | 0.00 | 64 | 1028.1 |
| 20260509154529 | 51 | 150 | 0.0 | 1.0 | 0.00 | 0.00 | 0.00 | 64 | 1028.1 |
| 20260509153630 | 52 | 149 | 1.0 | 2.0 | 0.00 | 0.00 | 0.00 | 64 | 1028.0 |
| 20260509152729 | 52 | 150 | 1.0 | 2.0 | 0.00 | 0.00 | 0.00 | 64 | 1028.0 |
| 20260509151829 | 52 | 150 | 1.0 | 2.0 | 0.00 | 0.00 | 0.00 | 64 | 1028.1 |
| 20260509150029 | 51 | 151 | 1.0 | 3.0 | 0.00 | 0.00 | 0.00 | 64 | 1028.1 |
| 20260509145129 | 52 | 156 | 2.0 | 5.0 | 0.00 | 0.00 | 0.00 | 64 | 1028.1 |
| 20260509144229 | 51 | 188 | 1.0 | 2.0 | 0.00 | 0.00 | 0.00 | 64 | 1028.2 |
| 20260509143329 | 52 | 188 | 1.0 | 3.0 | 0.00 | 0.00 | 0.00 | 64 | 1028.2 |
| 20260509142429 | 52 | 131 | 2.0 | 3.0 | 0.00 | 0.00 | 0.00 | 64 | 1028.3 |
| 20260509141529 | 52 | 103 | 1.0 | 2.0 | 0.00 | 0.00 | 0.00 | 64 | 1028.4 |
| 20260509140629 | 52 | 103 | 1.0 | 2.0 | 0.00 | 0.00 | 0.00 | 64 | 1028.4 |
| 20260509135729 | 52 | 117 | 0.0 | 2.0 | 0.00 | 0.00 | 0.00 | 64 | 1028.3 |
| 20260509134829 | 52 | 134 | 1.0 | 2.0 | 0.00 | 0.00 | 0.00 | 63 | 1028.3 |
| 20260509133929 | 52 | 134 | 1.0 | 2.0 | 0.00 | 0.00 | 0.00 | 63 | 1028.3 |
| 20260509133029 | 53 | 134 | 1.0 | 2.0 | 0.00 | 0.00 | 0.00 | 63 | 1028.3 |
| 20260509132129 | 53 | 134 | 1.0 | 2.0 | 0.00 | 0.00 | 0.00 | 63 | 1028.3 |
| 20260509131228 | 53 | 134 | 1.0 | 2.0 | 0.00 | 0.00 | 0.00 | 64 | 1028.4 |